Location: Budapest
(47.4979°N, 19.0402°E)
Time: 17:08:03
(UTC+02:00)

N. Korean satellite - Pass Details

Date: 10 October 2017
Orbit: 459 x 517 km, 97.2° (Epoch: 22 October)

Event Time Altitude Azimuth Distance (km) Brightness Sun altitude
Rises 19:06:12 0° 182° (S) 2,564 10.2 -11.1°
Reaches altitude 10° 19:08:22 10° 190° (S) 1,677 9.4 -11.4°
Maximum altitude 19:11:48 41° 262° (W) 718 8.0 -12.0°
Drops below altitude 10° 19:15:11 10° 334° (NNW) 1,660 9.7 -12.6°
Sets 19:17:19 0° 341° (NNW) 2,535 10.5 -12.9°
